Andover, NJ

1:33 PM EST on December 08, 2019 (GMT -0500)
Andover

Weather History for K12N - September, 2019

Change the Weather History Date:

Sunday, September 15, 2019

  Actual Average (WUND) Record (WUND)
Temperature  
Mean Temperature 70 °F -  
Max Temperature 81 °F - - (-1)
Min Temperature 60 °F - - (-1)
Cooling Degree Days 5    
Growing Degree Days 20 (Base 50)    
Moisture  
Dew Point 61 °F    
Average Humidity 84    
Maximum Humidity 100    
Minimum Humidity 48    
Precipitation  
Precipitation 0.00 in - - ()
Sea Level Pressure  
Sea Level Pressure 30.14 in    
Wind  
Wind Speed 1 mph (SSW)    
Max Wind Speed 6 mph    
Max Gust Speed -    
Averages and records for this station are not official NWS values.
T = Trace of Precipitation, MM = Missing Value Source: NWS Daily Summary

Daily Weather History Graph

Daily Weather History Graph

Search for Another Location

Airport or City:

Astronomy

Sep. 15, 2019 Rise Set
Actual Time 6:39 AM EDT 7:08 PM EDT
Civil Twilight 6:11 AM EDT 7:36 PM EDT
Nautical Twilight 5:39 AM EDT 8:08 PM EDT
Astronomical Twilight 5:05 AM EDT 8:41 PM EDT
Moon 8:14 PM EDT (9/15) 7:47 AM EDT (9/15)
Length of Visible Light 13h 24m
Length of Day
12h 29m
Full, 98% of the Moon is Illuminated
Sep 15
Full
Sep 21
Last Quarter
Sep 28
New
Oct 5
First Quarter
Oct 13
Full

Hourly Weather History & Observations

Time (EDT) Temp. Heat Index Dew Point Humidity Pressure Visibility Wind Dir Wind Speed Gust Speed Precip Events Conditions
12:54 AM 64.0 °F - 64.0 °F 100% 30.17 in - Calm Calm - N/A   Unknown
1:54 AM 63.0 °F - 62.1 °F 97% 30.17 in - SSW 3.5 mph - N/A   Unknown
2:54 AM 64.0 °F - 64.0 °F 100% 30.17 in - Calm Calm - N/A   Unknown
3:54 AM 63.0 °F - 63.0 °F 100% 30.16 in - Calm Calm - N/A   Unknown
4:54 AM 63.0 °F - 63.0 °F 100% 30.17 in - Calm Calm - N/A   Unknown
5:54 AM 63.0 °F - 63.0 °F 100% 30.18 in - Calm Calm - N/A   Unknown
6:54 AM 62.1 °F - 61.0 °F 96% 30.18 in - Calm Calm - N/A   Unknown
7:54 AM 62.1 °F - 62.1 °F 100% 30.18 in - Calm Calm - N/A   Unknown
8:54 AM 63.0 °F - 63.0 °F 100% 30.19 in - Calm Calm - N/A   Unknown
9:54 AM 68.0 °F - 61.0 °F 78% 30.19 in - North - - N/A   Unknown
10:54 AM 72.0 °F - 60.1 °F 66% 30.19 in - Variable 3.5 mph - N/A   Unknown
11:54 AM 73.9 °F - 57.9 °F 57% 30.17 in - Calm Calm - N/A   Unknown
12:54 PM 75.9 °F - 55.9 °F 50% 30.14 in - Variable 3.5 mph - N/A   Unknown
3:54 PM 78.1 °F - 57.0 °F 48% 30.09 in - Variable 5.8 mph - N/A   Unknown
4:54 PM 80.1 °F 80.7 °F 59.0 °F 48% 30.08 in - Variable 3.5 mph - N/A   Unknown
5:54 PM 77.0 °F - 57.9 °F 52% 30.09 in - Calm Calm - N/A   Unknown
7:54 PM 64.9 °F - 62.1 °F 90% 30.10 in - Calm Calm - N/A   Unknown
8:54 PM 62.1 °F - 61.0 °F 96% 30.09 in - Calm Calm - N/A   Unknown
9:54 PM 61.0 °F - 59.0 °F 93% 30.09 in - Calm Calm - N/A   Unknown
10:54 PM 60.1 °F - 59.0 °F 96% 30.09 in - Calm Calm - N/A   Unknown
11:54 PM 60.1 °F - 59.0 °F 96% 30.08 in - SSW 3.5 mph - N/A   Unknown